This is the latest recevied weather packets stored in our database for station/object KA3ZXO. If no packets are shown the sender has not sent any weather packets the latest 10 day(s).
| Time | Temp. | Humidity | Pressure | Rain* | Wind** | Luminosity | Snow |
|---|---|---|---|---|---|---|---|
| 1777853620 | 11.67° C | 52% | 1015 hPa | 0 mm | - | 0 W/m² | - |
| 1777853020 | 12.78° C | 51% | 1015 hPa | 0 mm | - | 1 W/m² | - |
| 1777852415 | 13.33° C | 47% | 1014.8 hPa | 0 mm | - | 2 W/m² | - |
| 1777851810 | 14.44° C | 43% | 1014.7 hPa | 0 mm | - | 5 W/m² | - |
| 1777851209 | 15.56° C | 42% | 1014.7 hPa | 0 mm | - | 7 W/m² | - |
| 1777850609 | 15.56° C | 36% | 1014.5 hPa | 0 mm | - | 10 W/m² | - |
| 1777850010 | 15.56° C | 35% | 1014.5 hPa | 0 mm | - | 13 W/m² | - |
| 1777849408 | 15.56° C | 35% | 1014.6 hPa | 0 mm | - | 16 W/m² | - |
| 1777848808 | 16.67° C | 33% | 1014.5 hPa | 0 mm | - | 20 W/m² | - |
| 1777848207 | 17.22° C | 33% | 1014.6 hPa | 0 mm | - | 28 W/m² | - |
| 1777847603 | 17.78° C | 31% | 1014.6 hPa | 0 mm | - | 83 W/m² | - |
| 1777847003 | 17.78° C | 31% | 1014.7 hPa | 0 mm | - | 104 W/m² | - |
| 1777846399 | 17.78° C | 31% | 1014.6 hPa | 0 mm | - | 130 W/m² | - |
| 1777845797 | 18.33° C | 31% | 1014.7 hPa | 0 mm | - | 154 W/m² | - |
| 1777845197 | 17.78° C | 32% | 1014.8 hPa | 0 mm | - | 182 W/m² | - |
| 1777844592 | 17.78° C | 31% | 1014.8 hPa | 0 mm | - | 211 W/m² | - |
| 1777843987 | 17.78° C | 31% | 1014.5 hPa | 0 mm | - | 241 W/m² | - |
| 1777843381 | 17.78° C | 30% | 1014.6 hPa | 0 mm | - | 270 W/m² | - |
| 1777842781 | 17.78° C | 30% | 1014.4 hPa | 0 mm | - | 299 W/m² | - |
| 1777842179 | 18.33° C | 30% | 1014.5 hPa | 0 mm | - | 326 W/m² | - |
| 1777841576 | 17.22° C | 31% | 1014.4 hPa | 0 mm | - | 358 W/m² | - |
| 1777840977 | 17.22° C | 31% | 1014.4 hPa | 0 mm | - | 382 W/m² | - |
| 1777840371 | 17.22° C | 30% | 1014.6 hPa | 0 mm | - | 411 W/m² | - |
| 1777839766 | 17.22° C | 32% | 1014.8 hPa | 0 mm | - | 437 W/m² | - |
| 1777839167 | 17.22° C | 31% | 1015 hPa | 0 mm | - | 462 W/m² | - |
* Rain latest hour (hover to see other rain measurements)
** Current wind speed in m/s (hover to see current wind gust speed)